SEGS

Details ICAO SEGS (GPS)
Name Galapagos - Baltra
Region Equador
Timezone Pacific/Galapagos (UTC-6.0)
Plans Departing 168
Arriving 238
Stats Elevation 207 ft / 63 m (AMSL)
Location -0.454002° -90.265800°
Runways 1
Magnetic Variation 3.059° E
Sunrise 2021-03-02 12:11:02 UTC / 2021-03-02 06:11:02 Local
Sunset 2021-03-03 00:18:12 UTC / 2021-03-02 18:18:12 Local
Advertisement - Login to hide

Runways

ID Width Length Bearing (true/mag) Surface Threshold Overrun Markings Lighting
14 115 ft / 35 m 8,179 ft / 2,493 m 144.02° / 140.96° ASPHALT 0 ft / 0 m 331 ft / 101 m PREC-APP
32 115 ft / 35 m 8,179 ft / 2,493 m 324.02° / 320.96° ASPHALT 0 ft / 0 m 354 ft / 108 m PREC-APP

Approach Navaids

Runway Type Ident Frequency Range Bearing (true/mag) Slope Elevation
14 LOC-ILS ILB 110.90 MHz 18 nm / 33 km 144.01° / 140.95° - 207 ft / 63 m (AMSL)
14 GS ILB 110.90 MHz 10 nm / 19 km 144.02° / 140.96° 3.00° 207 ft / 63 m (AMSL)

Map

Weather


0- 5 10 15 20 25 30 35+ Temperature / °C

Clouds and Precipitation
Forecast for 2021-03-02 12:00 UTC. Updated 5 hours ago

Ground ~20,000 ft ~40,000 ft Winds

METAR

SEGS 021400Z 12002KT 9999 SCT030 BKN100 26/24 Q1011 RMK A2985

TAF

Not found

Frequencies

Tower 122.20 MHz Baltra Tower
Warning: Do not use this data for real-world aviation or navigation. No guarantee of current accuracy is given.